Wind_Speed
21 20 20 20 20 20 20 20 21 21 20 21 21 21 22 22 21 22 22 22 22 22 22 22 23 23 23 23 23 23 23 22 22 22 22 21 21 21
21 21 21 21 21 21 22 22 22 22 21 22 22 22 22 22 22 22 23 23 23 23 23 23 23 23 24 23 23 23 23 23 23 23 22 22 21 21
22 22 22 22 22 22 23 23 23 23 22 22 22 22 23 23 23 23 23 23 23 24 24 24 24 24 24 23 23 23 23 24 24 23 23 23 22 22
24 24 24 24 24 24 24 23 24 24 23 23 23 24 24 24 24 25 25 25 25 25 25 25 25 25 25 25 24 24 24 24 25 25 25 24 24 23
25 25 25 25 25 25 25 25 25 24 24 24 24 24 24 25 25 26 26 26 26 26 26 26 26 26 26 26 26 26 26 26 25 25 25 25 25 24
27 27 27 27 27 27 27 27 26 26 26 26 25 25 25 26 26 26 27 27 27 26 26 27 27 27 27 28 28 28 27 27 26 26 26 26 26 26
29 29 29 28 28 28 28 28 27 27 26 26 26 26 26 27 27 27 27 27 28 27 27 27 27 27 28 28 28 28 28 28 27 27 27 27 27 27
30 30 29 29 29 28 28 28 28 27 27 27 27 27 27 27 27 27 27 28 28 28 27 27 27 27 27 28 28 28 28 28 28 28 28 29 28 28
30 30 30 29 28 28 28 29 28 27 27 28 28 28 28 28 27 27 28 28 28 28 28 27 27 27 27 28 28 28 28 29 29 29 29 29 29 29
31 31 31 30 30 28 28 28 28 28 28 28 28 28 28 28 28 28 28 28 28 28 28 28 28 27 27 27 28 28 28 29 29 29 29 29 30 30
31 31 31 31 31 30 29 29 29 29 29 30 29 29 28 29 29 29 29 29 29 29 29 28 28 28 28 28 28 28 29 29 29 29 29 28 28 29
32 31 32 32 32 31 31 30 29 30 31 31 30 30 29 29 29 29 30 30 30 30 30 29 29 29 28 29 29 29 29 28 29 29 28 28 28 28
33 33 33 33 33 32 32 32 31 31 32 31 31 31 30 30 30 30 31 31 31 31 31 31 30 30 30 29 30 30 30 29 29 29 28 28 28 29
34 33 33 33 32 32 33 33 33 33 32 32 32 32 31 31 31 31 31 31 32 31 31 31 31 31 31 30 30 31 31 30 30 29 29 29 29 29
35 34 33 33 33 33 33 34 33 32 32 31 31 30 30 30 30 30 30 30 30 30 30 30 30 29 30 30 30 31 30 30 30 30 30 29 30 30
34 33 33 34 33 33 33 33 33 33 32 32 31 31 30 30 30 30 30 30 30 30 30 30 30 30 30 30 30 30 30 29 30 30 31 30 30 30
34 33 32 33 33 33 32 32 32 33 33 32 32 32 31 31 31 31 31 31 31 30 30 30 30 30 30 30 30 30 29 29 30 30 31 31 30 30
33 32 32 33 33 33 33 33 33 32 32 32 32 32 32 31 31 31 31 32 31 31 31 30 30 30 30 29 30 30 29 29 30 31 31 31 31 31
32 31 31 32 33 32 33 33 33 33 33 33 33 32 31 31 31 31 31 31 31 31 31 31 30 30 30 30 30 31 30 30 30 31 31 31 31 31
31 31 31 32 33 33 33 33 33 33 33 33 33 32 31 31 31 31 31 31 31 31 31 30 30 30 30 30 30 30 31 31 31 31 32 32 32 32
32 32 32 33 33 34 33 33 33 33 33 33 33 32 31 31 31 31 31 30 31 31 31 30 30 30 30 31 31 31 31 32 31 31 31 31 32 32
32 32 32 32 32 33 33 32 32 32 32 32 32 33 32 32 32 31 30 30 30 30 30 30 30 31 31 31 31 31 31 31 30 29 30 31 31 30
30 31 31 31 31 31 31 31 31 31 31 31 31 31 31 32 31 31 31 31 31 30 30 31 31 31 32 32 31 31 31 31 30 30 30 30 31 31
Wind_Direction
274 276 276 274 273 273 273 273 272 272 272 271 272 270 269 269 269 269 267 265 264 262 261 260 260 260 260 262 263 263 262 261 260 260 260 258 256 256
273 274 274 274 274 274 273 273 273 272 272 272 272 271 271 271 271 270 268 266 265 263 262 261 260 261 262 263 264 262 262 261 260 260 259 258 255 254
273 273 274 274 272 273 273 273 273 275 274 273 273 272 272 272 271 270 268 266 265 264 264 263 261 261 262 263 262 261 261 261 261 259 259 257 255 254
274 274 274 274 272 272 274 274 274 274 273 274 274 273 272 272 272 270 268 267 266 266 265 264 262 262 262 264 262 262 261 261 260 260 258 257 255 254
272 274 274 273 272 272 272 273 274 274 273 274 275 274 273 272 271 270 269 268 268 266 266 265 263 262 263 263 262 261 261 260 260 259 257 256 255 254
270 271 272 272 272 271 272 273 272 272 272 273 274 274 273 273 272 271 270 270 269 266 266 266 264 262 262 261 261 260 260 258 257 257 257 256 255 255
271 270 269 270 270 270 271 272 272 271 271 273 275 274 273 273 272 272 271 270 269 267 266 265 264 263 262 261 260 259 259 258 256 257 258 257 256 257
271 270 269 269 270 269 270 270 271 272 272 272 273 273 272 272 272 272 271 270 269 268 267 265 264 264 263 262 261 260 259 258 257 258 258 257 256 256
270 270 269 269 268 268 268 268 270 270 272 273 274 273 272 271 272 272 271 270 270 269 267 266 265 265 264 261 261 261 260 259 259 259 259 257 256 255
269 269 269 267 268 267 267 268 269 271 272 272 273 272 271 271 272 272 271 271 271 268 267 267 267 267 266 264 262 261 260 260 260 259 259 258 256 254
268 268 268 268 266 266 267 268 269 270 271 272 272 271 270 270 271 271 271 271 271 269 267 266 266 266 265 265 263 262 261 262 260 259 259 258 256 254
269 267 266 265 266 264 266 267 268 269 269 270 271 271 271 271 270 270 270 270 269 267 265 265 265 266 265 264 262 262 263 262 260 258 258 258 256 254
269 267 266 266 265 263 264 266 267 268 268 269 270 270 271 270 268 269 270 269 268 265 264 264 265 265 265 263 261 262 263 264 262 258 257 258 257 255
270 268 265 265 264 264 264 265 264 264 267 268 269 270 270 270 269 268 268 268 266 264 263 264 264 264 264 262 261 260 262 263 261 258 256 256 257 256
271 269 267 264 263 263 263 264 263 263 265 267 267 268 269 269 269 268 268 268 266 263 263 263 263 263 263 262 261 260 260 261 260 258 257 256 256 257
269 267 265 264 263 262 262 262 262 264 264 266 267 268 269 268 269 269 269 269 267 264 264 263 262 263 263 261 260 259 259 260 258 256 257 258 257 257
267 265 264 265 263 262 262 263 263 264 265 265 267 269 269 269 269 268 267 268 266 265 265 263 262 262 261 261 259 258 259 260 258 256 257 257 257 257
265 263 262 264 264 263 262 262 262 264 265 265 266 268 269 268 268 267 266 266 265 264 264 262 261 261 262 261 259 259 259 260 258 258 257 257 258 258
264 262 261 263 265 264 262 262 262 262 263 264 265 266 267 267 267 267 265 265 266 264 263 262 261 261 262 261 259 259 260 261 259 258 259 259 260 260
266 266 264 264 264 263 263 262 262 261 262 263 264 265 266 266 266 267 265 265 265 264 262 261 261 262 261 260 259 259 260 262 261 260 259 258 260 261
268 268 267 265 264 264 265 264 263 262 262 263 264 263 264 264 264 266 265 263 262 261 260 260 260 260 260 260 260 261 261 262 262 261 261 262 262 261
268 267 267 266 265 264 265 265 264 264 264 264 264 263 262 262 264 265 264 263 261 259 259 259 259 259 260 262 261 261 261 261 261 262 262 263 264 263
267 267 267 267 266 266 265 265 265 265 266 265 264 263 263 263 264 264 264 263 261 259 259 259 259 260 261 260 260 261 260 260 261 262 262 262 262 263
Height
5791 5790 5789 5789 5788 5788 5787 5787 5787 5786 5786 5785 5785 5784 5784 5784 5784 5784 5784 5784 5784 5784 5784 5784 5785 5785 5785 5786 5786 5787 5787 5787 5788 5789 5790 5791 5792 5793
5785 5784 5784 5783 5783 5782 5781 5781 5780 5780 5780 5779 5779 5779 5778 5778 5778 5778 5778 5778 5778 5778 5778 5778 5778 5779 5779 5779 5780 5780 5781 5781 5782 5783 5783 5784 5786 5787
5778 5778 5777 5777 5777 5776 5776 5775 5774 5774 5774 5773 5773 5772 5772 5772 5772 5772 5771 5771 5771 5771 5771 5772 5772 5772 5772 5772 5773 5773 5774 5775 5775 5776 5777 5778 5779 5781
5772 5771 5771 5771 5770 5770 5769 5769 5768 5767 5767 5767 5766 5766 5765 5765 5765 5765 5765 5765 5764 5764 5764 5764 5765 5764 5764 5765 5766 5766 5767 5768 5769 5770 5771 5772 5773 5774
5765 5764 5764 5764 5763 5763 5763 5762 5761 5761 5760 5760 5759 5759 5758 5758 5758 5757 5757 5757 5756 5756 5756 5756 5757 5757 5757 5758 5758 5759 5760 5761 5761 5762 5763 5764 5766 5767
5757 5757 5757 5756 5756 5756 5755 5755 5754 5753 5753 5753 5752 5752 5751 5751 5750 5750 5750 5749 5749 5748 5748 5748 5748 5749 5749 5749 5750 5751 5751 5752 5753 5754 5755 5756 5758 5760
5749 5748 5748 5748 5748 5748 5747 5747 5746 5746 5745 5745 5744 5744 5744 5743 5743 5742 5742 5741 5741 5740 5740 5740 5740 5740 5741 5741 5742 5742 5743 5744 5745 5746 5747 5748 5750 5752
5740 5740 5740 5740 5739 5739 5739 5739 5738 5738 5738 5737 5736 5736 5736 5735 5735 5734 5733 5733 5733 5733 5732 5732 5732 5732 5732 5733 5733 5734 5735 5736 5737 5738 5739 5740 5742 5743
5731 5731 5731 5731 5731 5731 5730 5730 5730 5729 5729 5729 5728 5728 5727 5727 5726 5726 5725 5724 5724 5724 5723 5723 5724 5724 5724 5725 5725 5726 5726 5727 5728 5729 5730 5731 5733 5735
5721 5721 5722 5722 5722 5722 5722 5722 5721 5721 5720 5720 5720 5719 5718 5718 5717 5717 5716 5716 5715 5715 5715 5715 5715 5716 5716 5716 5717 5717 5718 5719 5720 5720 5721 5722 5724 5725
5712 5711 5712 5712 5712 5712 5712 5712 5712 5712 5711 5711 5710 5710 5709 5709 5708 5708 5708 5707 5707 5707 5707 5707 5707 5707 5708 5708 5708 5709 5710 5711 5711 5712 5713 5713 5714 5716
5702 5702 5702 5702 5702 5702 5703 5703 5703 5702 5702 5701 5701 5700 5700 5699 5699 5699 5699 5698 5698 5698 5698 5698 5698 5699 5699 5700 5700 5701 5701 5702 5703 5703 5704 5705 5706 5707
5692 5692 5692 5692 5692 5692 5692 5693 5693 5693 5692 5692 5691 5691 5691 5690 5690 5689 5689 5689 5689 5689 5689 5689 5689 5689 5690 5691 5691 5692 5692 5693 5694 5694 5695 5696 5697 5699
5681 5681 5681 5681 5682 5682 5682 5683 5683 5682 5682 5682 5682 5682 5681 5681 5680 5680 5679 5679 5679 5679 5679 5680 5680 5680 5680 5681 5682 5683 5683 5684 5684 5685 5687 5688 5689 5690
5670 5670 5671 5671 5671 5671 5672 5672 5672 5672 5672 5672 5672 5672 5671 5671 5671 5670 5670 5670 5669 5669 5669 5670 5670 5670 5671 5671 5672 5673 5674 5675 5675 5676 5678 5679 5681 5682
5659 5659 5660 5660 5660 5661 5661 5661 5661 5661 5662 5662 5662 5662 5661 5661 5661 5661 5660 5660 5660 5660 5660 5660 5660 5661 5661 5661 5662 5663 5664 5665 5666 5667 5669 5670 5672 5673
5648 5649 5649 5649 5649 5650 5650 5651 5651 5651 5651 5652 5652 5652 5652 5652 5652 5651 5651 5651 5651 5651 5651 5651 5651 5651 5651 5652 5653 5654 5655 5656 5657 5658 5660 5661 5663 5664
5637 5638 5638 5638 5639 5639 5639 5640 5640 5641 5641 5641 5641 5642 5642 5642 5642 5641 5641 5641 5641 5641 5641 5641 5642 5642 5643 5643 5644 5645 5646 5647 5648 5649 5650 5652 5654 5655
5626 5627 5627 5628 5628 5628 5628 5629 5630 5630 5631 5631 5631 5632 5632 5631 5631 5631 5631 5631 5632 5632 5632 5632 5633 5633 5634 5635 5636 5636 5637 5638 5639 5640 5641 5642 5644 5645
5616 5616 5616 5617 5617 5617 5618 5618 5619 5619 5620 5620 5621 5621 5621 5621 5621 5621 5621 5622 5622 5622 5622 5623 5624 5624 5625 5626 5627 5627 5628 5628 5629 5630 5631 5632 5634 5635
5606 5605 5605 5606 5606 5606 5606 5607 5607 5608 5609 5609 5610 5610 5610 5611 5611 5611 5611 5612 5612 5613 5613 5614 5615 5615 5615 5617 5618 5618 5618 5619 5619 5620 5621 5622 5623 5624
5595 5595 5595 5595 5595 5595 5596 5596 5597 5598 5598 5599 5599 5599 5600 5601 5601 5601 5602 5602 5602 5603 5604 5605 5605 5606 5607 5608 5608 5609 5609 5610 5610 5611 5611 5613 5613 5614
5585 5585 5585 5584 5585 5585 5586 5586 5587 5587 5588 5588 5589 5589 5590 5590 5591 5591 5592 5592 5593 5594 5595 5595 5596 5597 5597 5598 5599 5599 5599 5600 5601 5602 5603 5603 5603 5604